RH
86 86 74 80 86 78 90 85 79 82 77 77 74 72 78 83 86 90 88 86 88 86 81 78 74 82 94 96 77 58 68 85 74 86 84 80 75 75 71 69 60 63 56 54 49 47 47
88 81 77 83 89 80 87 87 84 84 83 81 78 76 81 82 83 85 86 85 84 86 80 79 73 83 98 98 62 59 43 82 75 92 80 78 72 60 64 66 61 58 55 52 47 47 45
76 81 86 84 70 88 91 90 88 84 84 78 80 78 83 82 80 83 87 85 85 81 79 81 76 84 96 79 67 61 57 85 78 89 86 76 64 62 59 62 56 52 55 56 56 52 52
81 85 82 78 78 90 89 89 90 82 84 83 80 84 74 81 86 89 90 90 89 85 82 84 83 96 93 67 59 60 73 83 90 83 78 72 67 64 60 54 60 66 60 75 54 58 51
84 82 85 78 79 90 88 86 86 86 81 80 88 88 77 77 87 91 88 82 86 89 90 85 84 92 88 73 75 60 56 83 80 69 68 68 69 71 63 73 79 70 87 80 62 54 50
85 86 83 80 83 89 86 84 86 86 82 80 90 80 75 82 91 89 93 76 84 88 86 85 84 92 83 76 80 56 57 81 76 77 85 81 81 89 86 76 88 80 76 72 71 49 58
84 79 83 81 82 88 82 84 83 72 73 79 86 78 76 87 90 90 98 77 76 81 88 79 79 75 75 72 77 60 57 79 93 84 90 88 89 86 83 74 64 70 72 70 62 50 50
80 76 82 82 84 82 78 72 70 80 86 79 77 78 80 84 89 90 88 89 77 75 80 68 61 72 70 66 83 74 55 82 88 96 91 87 89 77 72 69 71 71 77 78 64 53 51
82 81 80 77 85 75 73 77 83 86 92 94 93 96 95 91 93 98 77 75 68 79 86 80 80 84 70 68 71 78 68 80 85 93 91 88 82 73 73 74 84 69 73 70 68 58 54
81 77 83 79 72 89 79 82 88 93 96 95 98 92 97 93 85 92 86 75 76 83 91 98 88 91 76 75 74 59 63 75 82 91 86 92 86 83 87 84 74 88 57 59 60 65 80
80 85 78 71 88 83 76 86 90 94 96 95 80 80 77 70 86 90 90 87 86 86 93 98 89 87 76 66 69 70 64 64 79 82 81 94 94 92 94 87 78 85 55 59 63 73 67
82 82 78 74 75 75 84 88 91 94 95 95 97 81 76 78 81 79 74 82 82 91 98 99 95 91 76 73 77 71 70 64 62 74 70 75 74 79 82 76 68 59 60 68 77 76 86
83 81 77 76 83 84 87 85 94 94 95 83 92 81 78 88 87 89 81 86 94 94 98 100 97 75 75 81 78 74 86 82 91 98 100 90 71 54 55 66 56 58 69 88 74 80 79
84 82 78 78 74 79 81 89 96 96 95 74 76 81 91 84 88 86 87 87 90 98 100 92 73 79 86 73 82 81 85 87 67 86 95 94 96 63 55 61 70 65 67 83 64 73 78
86 83 81 80 79 82 85 90 98 98 79 70 59 68 77 76 85 92 95 98 98 100 94 87 74 89 95 86 90 91 80 77 68 63 80 85 82 60 57 60 57 73 82 60 85 82 90
88 84 82 82 82 83 86 90 94 99 92 63 62 73 74 73 80 86 95 99 99 80 65 69 90 81 95 86 90 90 78 64 66 58 55 67 92 68 61 56 62 61 65 82 90 70 75
87 87 83 84 85 85 87 90 95 99 100 65 66 81 59 74 76 91 99 100 90 80 71 66 78 79 85 83 83 95 77 63 54 61 56 62 75 82 62 71 79 75 80 82 78 82 82
89 88 83 84 87 86 87 89 93 99 94 69 84 88 58 68 95 98 100 99 84 84 73 56 60 64 71 72 71 69 80 62 53 56 62 58 80 95 75 67 62 66 75 73 85 83 91
88 88 86 85 87 88 87 88 90 97 99 85 91 92 57 67 97 99 88 92 88 85 69 55 56 54 62 66 69 62 65 54 57 52 60 59 77 92 82 70 67 74 74 69 71 79 96
90 88 88 88 87 88 87 88 89 94 84 82 91 92 92 93 92 88 92 87 77 73 58 56 59 53 58 61 63 69 66 66 62 54 57 57 72 76 82 68 78 91 82 75 78 99 88
91 87 90 88 87 88 87 87 88 86 79 75 94 96 92 98 89 90 87 81 79 82 69 57 56 54 59 69 72 75 69 66 63 64 64 62 87 85 77 72 77 78 77 85 86 80 88
91 90 96 88 86 87 89 86 86 85 75 79 95 96 88 94 91 82 75 75 80 76 73 65 61 56 62 65 68 81 72 66 63 63 66 66 98 93 91 79 86 93 85 82 84 78 78
92 92 92 94 87 84 88 86 84 85 79 92 94 85 87 84 88 78 80 72 70 67 68 75 67 70 77 82 73 57 54 62 60 71 75 71 94 93 94 84 89 92 87 83 79 77 69
92 91 88 96 87 81 81 84 85 83 79 94 96 99 94 90 90 82 86 77 74 76 70 77 72 69 72 65 66 64 67 67 64 68 65 79 92 95 91 86 96 59 67 65 68 68 68
92 90 90 95 95 86 80 80 82 82 77 85 90 98 98 90 88 88 85 86 71 70 77 78 79 77 76 68 82 78 78 70 68 64 72 68 89 89 92 84 74 61 75 74 74 65 67
84 80 87 92 96 87 82 82 79 77 76 71 76 82 96 99 90 90 96 90 79 80 78 79 74 77 71 85 83 90 97 83 98 96 78 82 79 90 99 97 96 59 59 62 60 74 56
88 83 88 92 98 95 86 77 77 73 80 72 73 74 92 96 74 87 93 95 77 80 82 83 80 75 71 89 89 88 87 76 89 92 98 100 100 98 95 94 85 60 50 63 76 67 56
94 91 92 95 94 98 82 84 75 72 84 83 76 76 69 97 91 80 83 92 86 86 86 78 83 82 90 87 88 89 86 86 88 81 80 88 92 97 88 99 94 60 73 72 61 61 62
87 84 88 86 77 81 98 91 88 83 84 82 77 73 75 88 80 71 67 62 77 78 95 91 81 83 86 90 93 91 93 93 88 92 81 95 83 90 80 80 56 58 51 52 65 69 64
Wind_Speed
22 21 25 25 24 26 27 24 24 25 24 25 23 23 23 22 20 17 16 17 16 14 15 16 17 14 13 2 8 4 7 10 28 25 21 8 11 5 6 6 4 4 2 5 5 5 3
22 24 25 27 25 27 26 25 25 24 23 24 23 22 20 19 19 16 15 15 15 13 15 15 14 11 8 8 10 16 17 12 28 25 20 10 6 5 5 5 6 6 6 4 4 4 3
23 25 25 27 28 28 29 26 25 24 23 22 23 20 19 17 18 17 15 16 15 15 14 13 12 11 10 10 3 6 6 17 28 25 12 17 7 4 6 4 5 4 3 2 5 4 5
22 24 26 28 27 29 29 25 24 23 22 22 21 20 19 19 17 16 16 15 17 14 13 12 11 12 6 8 14 12 6 15 19 22 22 19 7 5 3 3 4 6 3 2 3 7 5
22 25 27 29 28 30 28 25 24 24 25 23 21 19 20 18 15 13 11 19 18 15 13 9 6 4 3 2 9 19 8 13 20 18 20 21 6 3 2 6 4 2 4 4 5 6 3
23 25 26 29 29 29 28 27 26 25 24 26 22 19 18 16 15 15 17 23 16 9 8 5 4 3 2 3 5 9 5 15 8 14 6 5 4 5 3 4 6 6 2 2 5 1 2
24 26 28 30 29 28 28 28 27 28 28 27 23 21 17 16 15 11 16 8 4 3 1 5 4 4 4 8 11 4 9 8 4 12 9 7 6 15 10 5 3 6 4 4 3 0 3
23 25 27 29 30 28 28 30 29 29 28 27 25 21 18 18 18 15 10 1 3 2 2 6 8 10 3 8 6 3 5 4 4 5 7 7 8 7 8 8 6 4 4 2 3 1 1
21 23 25 28 29 28 29 30 32 33 33 29 28 25 22 20 20 9 7 5 3 3 2 4 3 6 3 6 4 5 5 2 5 4 11 6 4 10 8 8 7 2 3 3 2 4 1
23 25 26 28 28 28 30 32 34 36 36 32 26 21 18 16 6 8 2 3 6 4 4 1 2 1 1 9 3 2 3 3 2 8 12 3 2 4 5 6 4 3 2 2 3 3 3
20 24 26 27 28 28 29 32 34 37 33 27 22 18 10 9 11 2 3 5 6 1 5 2 1 1 4 5 9 1 2 2 4 9 3 2 4 10 7 4 7 1 3 4 3 3 3
21 23 25 26 27 27 28 31 33 34 30 27 23 15 6 11 11 7 6 8 2 3 5 0 2 7 6 3 3 3 3 3 2 9 11 4 1 3 3 5 2 8 5 5 4 2 2
20 22 24 24 26 27 28 30 32 30 28 22 21 19 13 6 3 7 7 1 3 5 1 3 4 6 10 5 5 4 2 3 3 5 3 4 2 1 4 6 4 3 5 2 4 3 4
19 20 23 24 26 26 28 28 30 29 25 19 16 16 16 11 5 3 5 3 8 4 5 6 11 13 6 5 5 3 3 3 6 5 3 3 2 1 1 3 5 2 4 4 4 1 3
18 20 22 24 25 26 27 28 28 28 21 18 15 11 7 12 7 6 3 5 3 3 1 9 9 7 5 6 4 4 3 3 2 3 5 4 3 1 3 2 3 3 2 2 5 2 3
17 19 21 23 25 26 27 28 29 28 23 16 9 8 6 18 8 1 2 6 3 2 2 5 5 1 3 3 3 2 1 1 4 2 1 3 4 2 2 3 6 3 6 3 3 2 3
17 17 20 23 25 26 28 29 31 31 24 11 4 3 7 17 6 4 4 3 3 4 2 4 3 4 4 4 3 4 3 2 2 3 5 4 4 1 2 1 6 2 2 5 4 2 3
16 17 19 21 24 25 27 29 32 33 26 6 3 3 12 10 4 2 3 4 4 4 2 4 4 5 4 3 3 2 6 1 4 5 4 1 4 3 1 1 1 2 4 4 4 3 2
14 17 17 20 22 24 27 29 30 32 22 8 2 2 5 5 3 3 3 3 2 4 4 2 2 3 1 4 4 3 3 2 6 3 5 4 2 3 3 4 3 3 4 4 4 3 5
15 15 17 18 20 23 25 28 30 31 18 5 2 3 4 4 1 3 4 3 3 2 2 3 3 3 4 3 4 4 2 3 6 5 7 5 3 4 5 4 3 2 4 5 5 3 3
14 15 17 18 19 21 25 27 30 30 13 4 3 1 2 3 3 4 2 2 2 4 4 4 4 2 5 3 2 3 2 2 4 4 3 3 3 2 4 4 3 4 4 7 7 5 6
14 14 16 17 19 20 23 26 29 32 8 6 2 1 0 2 3 4 4 5 4 2 2 2 5 1 2 4 5 6 6 2 3 3 3 1 3 2 3 2 5 5 8 9 9 6 10
12 15 14 15 17 18 20 22 25 29 15 6 5 2 2 2 2 2 2 4 4 3 4 4 3 2 4 1 2 3 2 4 6 7 3 4 5 2 3 4 5 5 8 13 5 5 9
12 13 13 15 14 16 17 19 20 22 21 6 6 3 2 3 1 3 3 2 3 3 1 3 4 2 2 4 2 6 7 6 6 3 3 4 4 2 3 4 1 5 4 9 11 5 11
11 13 15 14 12 14 14 15 16 17 19 9 10 3 2 3 3 5 2 3 1 3 2 1 2 0 2 3 3 3 1 2 1 2 3 3 4 2 1 3 6 3 4 5 6 4 9
12 14 14 12 12 12 12 12 13 13 14 10 8 9 2 2 3 3 4 3 2 1 3 0 0 1 4 2 2 3 4 4 3 3 3 4 4 3 3 2 3 3 3 3 3 1 2
11 12 12 11 14 10 11 10 11 11 11 12 4 8 2 2 3 2 3 3 1 0 2 2 2 1 3 2 2 3 3 4 5 6 4 4 3 4 4 3 6 6 3 2 1 4 2
8 10 11 11 11 14 8 10 10 10 9 9 5 2 3 2 5 3 3 3 3 1 2 2 3 1 2 3 3 3 3 4 3 4 6 7 7 4 3 3 7 4 4 4 3 2 3
9 9 9 11 11 13 13 9 9 10 8 8 3 3 3 3 5 9 18 23 15 11 3 2 2 3 4 3 1 2 2 1 3 3 0 4 5 5 7 5 3 3 2 3 4 4 3
Wind_Direction
337 343 336 335 334 327 331 333 330 327 326 323 326 327 323 317 315 315 307 299 294 291 285 297 300 302 305 196 245 198 337 198 189 190 188 165 162 139 166 164 122 168 193 206 261 284 226
341 339 336 333 332 329 331 329 329 327 324 324 321 324 326 323 320 316 305 301 296 291 288 296 297 287 265 220 245 284 279 195 180 179 180 165 159 159 143 192 165 190 195 228 252 248 253
340 339 336 334 334 331 332 331 329 329 325 327 325 326 325 322 323 324 317 309 301 295 290 296 293 276 249 222 217 334 239 175 173 178 162 181 162 137 135 123 187 142 104 276 245 202 238
338 337 338 336 332 333 336 334 331 326 327 325 324 320 322 320 320 316 317 315 310 291 284 290 283 280 242 222 229 286 298 170 183 171 169 173 144 105 133 127 62 124 91 218 279 167 236
342 339 340 339 334 337 339 335 332 330 329 324 321 320 320 316 313 322 319 313 310 287 281 280 288 251 227 308 203 250 255 184 170 173 176 166 137 144 100 127 96 88 179 191 314 196 167
341 341 342 341 336 339 338 337 337 334 329 327 324 322 316 311 314 318 299 328 308 277 258 232 256 309 249 203 145 249 180 159 150 150 105 137 161 139 108 179 189 153 169 187 207 295 160
345 344 345 342 341 341 343 342 340 336 329 325 323 319 309 307 308 323 330 335 28 83 281 192 219 246 110 101 192 196 151 118 134 152 189 175 170 192 177 160 138 125 142 177 242 23 306
345 347 347 343 341 347 345 343 340 334 330 326 320 317 309 302 305 309 312 149 220 153 315 247 281 244 317 158 167 203 165 157 139 130 84 146 202 164 154 153 125 119 133 225 281 353 290
344 348 350 347 348 346 347 344 340 336 330 318 308 302 299 295 298 280 192 217 190 207 164 64 273 213 130 127 107 159 176 148 106 93 138 166 123 148 150 169 154 111 148 191 219 333 64
346 349 349 350 349 347 351 347 343 343 342 339 331 316 306 308 49 134 177 223 223 199 88 82 294 62 94 119 45 117 96 155 84 101 101 50 309 138 162 156 116 168 193 87 71 38 265
350 350 351 352 350 354 351 351 350 351 358 7 3 3 42 57 127 110 72 124 139 70 88 97 70 9 233 147 137 161 34 31 112 120 94 87 132 143 162 133 114 179 97 103 86 88 13
351 352 354 354 353 352 353 358 353 357 1 3 3 22 64 67 79 98 107 106 61 33 73 91 133 142 96 41 60 84 52 79 91 52 83 80 175 106 96 104 168 151 86 59 58 84 16
352 354 354 358 355 355 356 359 356 356 360 0 10 19 48 35 39 126 137 20 19 63 266 49 89 124 110 86 86 69 47 73 109 123 79 89 357 52 109 95 62 95 77 346 355 15 220
351 355 353 357 357 354 353 358 358 354 354 355 350 20 34 60 46 130 309 51 56 26 59 132 106 78 81 99 80 67 124 78 36 79 99 136 144 39 38 119 167 110 139 159 220 205 285
351 353 355 356 2 357 354 355 359 355 346 342 343 352 7 1 340 305 25 44 49 355 55 114 76 72 51 44 75 98 360 106 98 50 118 117 46 18 46 102 96 185 149 171 109 72 47
350 353 356 355 359 360 355 354 356 356 351 345 346 330 310 339 336 327 54 87 60 171 59 65 88 123 102 107 85 68 30 98 99 60 107 181 87 24 110 109 45 127 143 75 10 117 265
349 355 356 354 357 359 357 356 353 355 351 355 32 32 315 347 344 51 58 43 340 345 40 86 145 105 122 136 118 160 187 9 117 125 70 130 98 13 82 179 169 114 124 51 104 99 152
347 352 354 357 355 358 -0 358 355 356 355 1 92 35 343 358 45 18 28 336 317 311 326 70 93 83 105 117 91 122 188 212 154 144 102 49 115 147 138 349 222 147 162 143 130 220 99
353 348 353 356 356 357 360 360 359 357 -0 337 67 240 336 4 65 357 336 321 313 336 358 63 87 71 127 128 122 148 183 145 155 131 152 175 44 61 6 1 5 194 188 134 109 99 200
343 346 348 356 356 356 1 1 -0 358 356 0 64 26 336 33 16 2 1 339 357 231 357 54 96 94 100 82 38 163 112 5 170 163 117 87 103 145 184 206 146 198 185 175 132 136 189
338 342 346 352 357 356 0 2 2 2 4 12 35 104 144 337 344 338 281 276 28 4 349 30 52 132 127 106 90 99 96 102 60 134 75 103 120 125 253 234 180 205 188 186 196 179 180
336 336 342 347 353 356 1 4 4 5 18 65 82 31 248 246 272 323 342 0 21 345 357 3 119 265 99 143 176 185 140 152 157 42 112 107 132 90 299 339 213 244 226 211 212 222 255
334 332 337 345 350 352 1 5 8 10 24 50 15 5 301 280 356 24 317 315 353 340 38 47 84 79 68 87 249 198 120 126 155 144 134 138 132 101 279 337 314 293 227 198 179 200 211
328 332 330 340 347 351 357 4 11 13 21 41 8 311 12 292 304 188 315 315 349 4 36 3 33 85 199 126 131 68 67 82 109 89 154 128 107 113 293 3 348 239 156 176 200 205 211
322 327 327 331 336 343 351 357 6 11 16 37 23 6 358 293 311 293 252 256 317 354 58 86 31 206 9 35 61 113 101 60 174 146 138 130 124 156 244 256 283 280 157 140 174 257 203
319 319 321 316 325 340 347 349 357 3 3 14 19 14 4 330 264 331 315 315 220 200 342 282 75 64 75 85 89 170 190 183 180 128 64 89 115 140 183 262 252 248 124 144 132 30 137
308 316 313 309 329 319 337 340 345 352 355 2 26 13 305 279 266 252 247 282 313 76 169 288 193 124 54 108 141 188 242 191 172 185 169 158 168 204 212 268 284 245 195 122 103 224 274
300 308 310 311 310 331 326 332 338 337 342 348 332 7 35 289 279 241 247 244 315 102 181 240 78 316 67 162 174 214 182 226 160 166 175 181 181 188 178 221 259 153 83 156 222 284 268
288 300 308 323 295 308 331 313 322 320 323 322 305 276 265 193 255 275 263 263 251 257 310 257 235 172 185 105 181 122 199 148 168 225 170 200 185 181 186 212 233 204 203 245 187 222 264